Year,Month,Day,Hour,Minute,Value (Times are PST for temperature in C)
2016,05,02,00,00,13.80
2016,05,02,00,01,13.80
2016,05,02,00,02,13.90
2016,05,02,00,03,13.90
2016,05,02,00,04,13.90
2016,05,02,00,05,14.00
2016,05,02,00,06,14.00
2016,05,02,00,07,14.10
2016,05,02,00,08,14.20
2016,05,02,00,09,14.30
2016,05,02,00,10,14.30
2016,05,02,00,11,14.40
2016,05,02,00,12,14.50
2016,05,02,00,13,14.60
2016,05,02,00,14,14.60
2016,05,02,00,15,14.70
2016,05,02,00,16,14.70
2016,05,02,00,17,14.80
2016,05,02,00,18,14.80
2016,05,02,00,19,14.90
2016,05,02,00,20,14.90
2016,05,02,00,21,14.90
2016,05,02,00,22,14.90
2016,05,02,00,23,14.90
2016,05,02,00,24,14.90
2016,05,02,00,25,14.90
2016,05,02,00,26,14.90
2016,05,02,00,27,14.90
2016,05,02,00,28,14.90
2016,05,02,00,29,14.90
2016,05,02,00,30,14.90
2016,05,02,00,31,14.90
2016,05,02,00,32,14.90
2016,05,02,00,33,14.90
2016,05,02,00,34,14.80
2016,05,02,00,35,14.80
2016,05,02,00,36,14.70
2016,05,02,00,37,14.70
2016,05,02,00,38,14.60
2016,05,02,00,39,14.50
2016,05,02,00,40,14.40
2016,05,02,00,41,14.30
2016,05,02,00,42,14.20
2016,05,02,00,43,14.10
2016,05,02,00,44,14.00
2016,05,02,00,45,13.80
2016,05,02,00,46,13.70
2016,05,02,00,47,13.50
2016,05,02,00,48,13.40
2016,05,02,00,49,13.30
2016,05,02,00,50,13.20
2016,05,02,00,51,13.10
2016,05,02,00,52,13.00
2016,05,02,00,53,13.00
2016,05,02,00,54,12.90
2016,05,02,00,55,12.90
2016,05,02,00,56,12.90
2016,05,02,00,57,13.00
2016,05,02,00,58,13.10
2016,05,02,00,59,13.20
2016,05,02,01,00,13.30
2016,05,02,01,01,13.40
2016,05,02,01,02,13.50
2016,05,02,01,03,13.60
2016,05,02,01,04,13.60
2016,05,02,01,05,13.70
2016,05,02,01,06,13.70
2016,05,02,01,07,13.70
2016,05,02,01,08,13.70
2016,05,02,01,09,13.70
2016,05,02,01,10,13.70
2016,05,02,01,11,13.70
2016,05,02,01,12,13.70
2016,05,02,01,13,13.70
2016,05,02,01,14,13.80
2016,05,02,01,15,13.80
2016,05,02,01,16,13.80
2016,05,02,01,17,13.80
2016,05,02,01,18,13.80
2016,05,02,01,19,13.90
2016,05,02,01,20,13.90
2016,05,02,01,21,13.90
2016,05,02,01,22,14.00
2016,05,02,01,23,14.00
2016,05,02,01,24,14.10
2016,05,02,01,25,14.10
2016,05,02,01,26,14.10
2016,05,02,01,27,14.10
2016,05,02,01,28,14.10
2016,05,02,01,29,14.10
2016,05,02,01,30,14.10
2016,05,02,01,31,14.10
2016,05,02,01,32,14.10
2016,05,02,01,33,14.10
2016,05,02,01,34,14.10
2016,05,02,01,35,14.20
2016,05,02,01,36,14.20
2016,05,02,01,37,14.20
2016,05,02,01,38,14.20
2016,05,02,01,39,14.30
2016,05,02,01,40,14.30
2016,05,02,01,41,14.30
2016,05,02,01,42,14.40
2016,05,02,01,43,14.40
2016,05,02,01,44,14.50
2016,05,02,01,45,14.50
2016,05,02,01,46,14.60
2016,05,02,01,47,14.70
2016,05,02,01,48,14.80
2016,05,02,01,49,14.90
2016,05,02,01,50,15.10
2016,05,02,01,51,15.20
2016,05,02,01,52,15.30
2016,05,02,01,53,15.40
2016,05,02,01,54,15.50
2016,05,02,01,55,15.60
2016,05,02,01,56,15.70
2016,05,02,01,57,15.70
2016,05,02,01,58,15.80
2016,05,02,01,59,15.80
2016,05,02,02,00,15.80
2016,05,02,02,01,15.90
2016,05,02,02,02,15.90
2016,05,02,02,03,15.90
2016,05,02,02,04,15.90
2016,05,02,02,05,15.80
2016,05,02,02,06,15.70
2016,05,02,02,07,15.70
2016,05,02,02,08,15.60
2016,05,02,02,09,15.60
2016,05,02,02,10,15.50
2016,05,02,02,11,15.50
2016,05,02,02,12,15.40
2016,05,02,02,13,15.40
2016,05,02,02,14,15.40
2016,05,02,02,15,15.40
2016,05,02,02,16,15.40
2016,05,02,02,17,15.40
2016,05,02,02,18,15.50
2016,05,02,02,19,15.50
2016,05,02,02,20,15.60
2016,05,02,02,21,15.60
2016,05,02,02,22,15.60
2016,05,02,02,23,15.60
2016,05,02,02,24,15.50
2016,05,02,02,25,15.50
2016,05,02,02,26,15.50
2016,05,02,02,27,15.50
2016,05,02,02,28,15.50
2016,05,02,02,29,15.50
2016,05,02,02,30,15.60
2016,05,02,02,31,15.60
2016,05,02,02,32,15.70
2016,05,02,02,33,15.80
2016,05,02,02,34,15.80
2016,05,02,02,35,15.90
2016,05,02,02,36,15.90
2016,05,02,02,37,16.00
2016,05,02,02,38,16.00
2016,05,02,02,39,16.10
2016,05,02,02,40,16.10
2016,05,02,02,41,16.10
2016,05,02,02,42,16.10
2016,05,02,02,43,16.00
2016,05,02,02,44,16.00
2016,05,02,02,45,15.90
2016,05,02,02,46,15.90
2016,05,02,02,47,15.90
2016,05,02,02,48,15.80
2016,05,02,02,49,15.90
2016,05,02,02,50,15.80
2016,05,02,02,51,15.80
2016,05,02,02,52,15.80
2016,05,02,02,53,15.80
2016,05,02,02,54,15.80
2016,05,02,02,55,15.70
2016,05,02,02,56,15.60
2016,05,02,02,57,15.50
2016,05,02,02,58,15.40
2016,05,02,02,59,15.30
2016,05,02,03,00,15.20
2016,05,02,03,01,15.00
2016,05,02,03,02,14.90
2016,05,02,03,03,14.70
2016,05,02,03,04,14.60
2016,05,02,03,05,14.50
2016,05,02,03,06,14.40
2016,05,02,03,07,14.30
2016,05,02,03,08,14.30
2016,05,02,03,09,14.30
2016,05,02,03,10,14.30
2016,05,02,03,11,14.30
2016,05,02,03,12,14.40
2016,05,02,03,13,14.50
2016,05,02,03,14,14.50
2016,05,02,03,15,14.60
2016,05,02,03,16,14.60
2016,05,02,03,17,14.70
2016,05,02,03,18,14.70
2016,05,02,03,19,14.70
2016,05,02,03,20,14.70
2016,05,02,03,21,14.70
2016,05,02,03,22,14.70
2016,05,02,03,23,14.60
2016,05,02,03,24,14.60
2016,05,02,03,25,14.50
2016,05,02,03,26,14.40
2016,05,02,03,27,14.30
2016,05,02,03,28,14.20
2016,05,02,03,29,14.10
2016,05,02,03,30,14.00
2016,05,02,03,31,13.90
2016,05,02,03,32,13.80
2016,05,02,03,33,13.70
2016,05,02,03,34,13.70
2016,05,02,03,35,13.60
2016,05,02,03,36,13.60
2016,05,02,03,37,13.60
2016,05,02,03,38,13.60
2016,05,02,03,39,13.50
2016,05,02,03,40,13.50
2016,05,02,03,41,13.50
2016,05,02,03,42,13.40
2016,05,02,03,43,13.40
2016,05,02,03,44,13.40
2016,05,02,03,45,13.40
2016,05,02,03,46,13.40
2016,05,02,03,47,13.40
2016,05,02,03,48,13.50
2016,05,02,03,49,13.60
2016,05,02,03,50,13.70
2016,05,02,03,51,13.70
2016,05,02,03,52,13.80
2016,05,02,03,53,13.80
2016,05,02,03,54,13.80
2016,05,02,03,55,13.80
2016,05,02,03,56,13.80
2016,05,02,03,57,13.80
2016,05,02,03,58,13.90
2016,05,02,03,59,13.90
2016,05,02,04,00,13.90
2016,05,02,04,01,14.00
2016,05,02,04,02,14.00
2016,05,02,04,03,14.10
2016,05,02,05,04,14.30
2016,05,02,05,05,14.30
2016,05,02,05,06,14.30
2016,05,02,05,07,14.30
2016,05,02,05,08,14.30
2016,05,02,05,09,14.20
2016,05,02,05,10,14.20
2016,05,02,05,11,14.20
2016,05,02,05,12,14.10
2016,05,02,05,13,14.10
2016,05,02,05,14,14.00
2016,05,02,05,15,14.00
2016,05,02,05,16,13.90
2016,05,02,05,17,13.90
2016,05,02,05,18,13.80
2016,05,02,05,19,13.80
2016,05,02,05,20,13.80
2016,05,02,05,21,13.70
2016,05,02,05,22,13.70
2016,05,02,05,23,13.70
2016,05,02,05,24,13.70
2016,05,02,05,25,13.70
2016,05,02,05,26,13.80
2016,05,02,05,27,13.80
2016,05,02,05,28,13.80
2016,05,02,05,29,13.80
2016,05,02,05,30,13.80
2016,05,02,05,31,13.80
2016,05,02,05,32,13.80
2016,05,02,05,33,13.80
2016,05,02,05,34,13.80
2016,05,02,05,35,13.80
2016,05,02,05,36,13.90
2016,05,02,05,37,13.90
2016,05,02,05,38,13.90
2016,05,02,05,39,13.90
2016,05,02,05,40,14.00
2016,05,02,05,41,14.00
2016,05,02,05,42,14.00
2016,05,02,05,43,14.00
2016,05,02,05,44,14.10
2016,05,02,05,45,14.10
2016,05,02,05,46,14.10
2016,05,02,05,47,14.10
2016,05,02,05,48,14.10
2016,05,02,05,49,14.10
2016,05,02,05,50,14.10
2016,05,02,05,51,14.10
2016,05,02,05,52,14.10
2016,05,02,05,53,14.10
2016,05,02,05,54,14.10
2016,05,02,05,55,14.10
2016,05,02,05,56,14.10
2016,05,02,05,57,14.10
2016,05,02,05,58,14.20
2016,05,02,05,59,14.20
2016,05,02,06,00,14.20
2016,05,02,06,01,14.20
2016,05,02,06,02,14.20
2016,05,02,06,03,14.20
2016,05,02,06,04,14.20
2016,05,02,06,05,14.20
2016,05,02,06,06,14.30
2016,05,02,06,07,14.30
2016,05,02,06,08,14.30
2016,05,02,06,09,14.30
2016,05,02,06,10,14.30
2016,05,02,06,11,14.30
2016,05,02,06,12,14.30
2016,05,02,06,13,14.30
2016,05,02,06,14,14.30
2016,05,02,06,15,14.30
2016,05,02,06,16,14.30
2016,05,02,06,17,14.30
2016,05,02,06,18,14.30
2016,05,02,06,19,14.30
2016,05,02,06,20,14.30
2016,05,02,06,21,14.30
2016,05,02,06,22,14.30
2016,05,02,06,23,14.30
2016,05,02,06,24,14.30
2016,05,02,06,25,14.30
2016,05,02,06,26,14.30
2016,05,02,06,27,14.30
2016,05,02,06,28,14.30
2016,05,02,06,29,14.30
2016,05,02,06,30,14.30
2016,05,02,06,31,14.30
2016,05,02,06,32,14.30
2016,05,02,06,33,14.30
2016,05,02,06,34,14.30
2016,05,02,06,35,14.30
2016,05,02,06,36,14.30
2016,05,02,06,37,14.30
2016,05,02,06,38,14.30
2016,05,02,06,39,14.30
2016,05,02,06,40,14.20
2016,05,02,06,41,14.20
2016,05,02,06,42,14.20
2016,05,02,06,43,14.10
2016,05,02,06,44,14.10
2016,05,02,06,45,14.10
2016,05,02,06,46,14.10
2016,05,02,06,47,14.10
2016,05,02,06,48,14.00
2016,05,02,06,49,14.00
2016,05,02,06,50,14.00
2016,05,02,06,51,14.00
2016,05,02,06,52,14.00
2016,05,02,06,53,14.00
2016,05,02,06,54,14.00
2016,05,02,06,55,14.00
2016,05,02,06,56,14.00
2016,05,02,06,57,14.00
2016,05,02,06,58,14.00
2016,05,02,06,59,14.10
2016,05,02,07,00,14.10
2016,05,02,07,01,14.10
2016,05,02,07,02,14.10
2016,05,02,07,03,14.20
2016,05,02,07,04,14.20
2016,05,02,07,05,14.20
2016,05,02,07,06,14.30
2016,05,02,07,07,14.30
2016,05,02,07,08,14.40
2016,05,02,07,09,14.40
2016,05,02,07,10,14.40
2016,05,02,07,11,14.50
2016,05,02,07,12,14.50
2016,05,02,07,13,14.60
2016,05,02,07,14,14.60
2016,05,02,07,15,14.60
2016,05,02,07,16,14.70
2016,05,02,07,17,14.70
2016,05,02,07,18,14.80
2016,05,02,07,19,14.80
2016,05,02,07,20,14.80
2016,05,02,07,21,14.90
2016,05,02,07,22,14.90
2016,05,02,07,23,15.00
2016,05,02,07,24,15.00
2016,05,02,07,25,15.10
2016,05,02,07,26,15.10
2016,05,02,07,27,15.10
2016,05,02,07,28,15.20
2016,05,02,07,29,15.20
2016,05,02,07,30,15.30
2016,05,02,07,31,15.30
2016,05,02,07,32,15.30
2016,05,02,07,33,15.30
2016,05,02,07,34,15.30
2016,05,02,07,35,15.30
2016,05,02,07,36,15.40
2016,05,02,07,37,15.40
2016,05,02,07,38,15.40
2016,05,02,07,39,15.40
2016,05,02,07,40,15.40
2016,05,02,07,41,15.50
2016,05,02,07,42,15.50
2016,05,02,07,43,15.60
2016,05,02,07,44,15.60
2016,05,02,07,45,15.60
2016,05,02,07,46,15.70
2016,05,02,07,47,15.70
2016,05,02,07,48,15.70
2016,05,02,07,49,15.70
2016,05,02,07,50,15.70
2016,05,02,07,51,15.70
2016,05,02,07,52,15.70
2016,05,02,07,53,15.70
2016,05,02,07,54,15.70
2016,05,02,07,55,15.80
2016,05,02,07,56,15.80
2016,05,02,07,57,15.80
2016,05,02,07,58,15.90
2016,05,02,07,59,15.90
2016,05,02,08,00,15.90
2016,05,02,08,01,16.00
2016,05,02,08,02,16.00
2016,05,02,08,03,16.00
2016,05,02,08,04,16.00
2016,05,02,08,05,16.00
2016,05,02,08,06,16.00
2016,05,02,08,07,16.00
2016,05,02,08,08,16.00
2016,05,02,08,09,16.00
2016,05,02,08,10,16.00
2016,05,02,08,11,16.00
2016,05,02,08,12,16.00
2016,05,02,08,13,16.00
2016,05,02,08,14,16.00
2016,05,02,08,15,16.00
2016,05,02,08,16,16.10
2016,05,02,08,17,16.10
2016,05,02,08,18,16.10
2016,05,02,08,19,16.10
2016,05,02,08,20,16.10
2016,05,02,08,21,16.10
2016,05,02,08,22,16.10
2016,05,02,08,23,16.10
2016,05,02,08,24,16.20
2016,05,02,08,25,16.20
2016,05,02,08,26,16.20
2016,05,02,08,27,16.20
2016,05,02,08,28,16.30
2016,05,02,08,29,16.30
2016,05,02,08,30,16.30
2016,05,02,08,31,16.30
2016,05,02,08,32,16.30
2016,05,02,08,33,16.40
2016,05,02,08,34,16.40
2016,05,02,08,35,16.40
2016,05,02,08,36,16.40
2016,05,02,08,37,16.50
2016,05,02,08,38,16.50
2016,05,02,08,39,16.50
2016,05,02,08,40,16.50
2016,05,02,08,41,16.50
2016,05,02,08,42,16.50
2016,05,02,08,43,16.60
2016,05,02,08,44,16.60
2016,05,02,08,45,16.60
2016,05,02,08,46,16.70
2016,05,02,08,47,16.70
2016,05,02,08,48,16.70
2016,05,02,08,49,16.70
2016,05,02,08,50,16.70
2016,05,02,08,51,16.70
2016,05,02,08,52,16.70
2016,05,02,08,53,16.70
2016,05,02,08,54,16.70
2016,05,02,08,55,16.80
2016,05,02,08,56,16.80
2016,05,02,08,57,16.80
2016,05,02,08,58,16.80
2016,05,02,08,59,16.80
2016,05,02,09,00,16.80
2016,05,02,09,01,16.90
2016,05,02,09,02,16.90
2016,05,02,09,03,16.90
2016,05,02,09,04,17.00
2016,05,02,09,05,17.00
2016,05,02,09,06,17.00
2016,05,02,09,07,17.00
2016,05,02,09,08,17.00
2016,05,02,09,09,17.10
2016,05,02,09,10,17.10
2016,05,02,09,11,17.10
2016,05,02,09,12,17.20
2016,05,02,09,13,17.20
2016,05,02,09,14,17.20
2016,05,02,09,15,17.20
2016,05,02,09,16,17.20
2016,05,02,09,17,17.30
2016,05,02,09,18,17.30
2016,05,02,09,19,17.30
2016,05,02,09,20,17.30
2016,05,02,09,21,17.30
2016,05,02,09,22,17.30
2016,05,02,09,23,17.30
2016,05,02,09,24,17.40
2016,05,02,09,25,17.40
2016,05,02,09,26,17.50
2016,05,02,09,27,17.50
2016,05,02,09,28,17.60
2016,05,02,09,29,17.60
2016,05,02,09,30,17.60
2016,05,02,09,31,17.60
2016,05,02,09,32,17.60
2016,05,02,09,33,17.60
2016,05,02,09,34,17.70
2016,05,02,09,35,17.70
2016,05,02,09,36,17.70
2016,05,02,09,37,17.80
2016,05,02,09,38,17.80
2016,05,02,09,39,17.80
2016,05,02,09,40,17.90
2016,05,02,09,41,17.90
2016,05,02,09,42,17.90
2016,05,02,09,43,17.90
2016,05,02,09,44,17.90
2016,05,02,09,45,17.90
2016,05,02,09,46,17.90
2016,05,02,09,47,17.90
2016,05,02,09,48,17.90
2016,05,02,09,49,17.90
2016,05,02,09,50,17.90
2016,05,02,09,51,18.00
2016,05,02,09,52,17.90
2016,05,02,09,53,17.90
2016,05,02,09,54,17.90
2016,05,02,09,55,17.90
2016,05,02,09,56,17.90
2016,05,02,09,57,18.00
2016,05,02,09,58,18.00
2016,05,02,09,59,18.00
2016,05,02,10,00,18.00
2016,05,02,10,01,18.00
2016,05,02,10,02,18.00
2016,05,02,10,03,18.00
2016,05,02,10,04,18.10
2016,05,02,10,05,18.10
2016,05,02,10,06,18.10
2016,05,02,10,07,18.20
2016,05,02,10,08,18.20
2016,05,02,10,09,18.20
2016,05,02,10,10,18.20
2016,05,02,10,11,18.30
2016,05,02,10,12,18.40
2016,05,02,10,13,18.40
2016,05,02,10,14,18.50
2016,05,02,10,15,18.50
2016,05,02,10,16,18.60
2016,05,02,10,17,18.60
2016,05,02,10,18,18.70
2016,05,02,10,19,18.70
2016,05,02,10,20,18.70
2016,05,02,10,21,18.80
2016,05,02,10,22,18.80
2016,05,02,10,23,18.80
2016,05,02,10,24,18.90
2016,05,02,10,25,19.00
2016,05,02,10,26,19.10
2016,05,02,10,27,19.20
2016,05,02,10,28,19.20
2016,05,02,10,29,19.20
2016,05,02,10,30,19.20
2016,05,02,10,31,19.30
2016,05,02,10,32,19.30
2016,05,02,10,33,19.40
2016,05,02,10,34,19.40
2016,05,02,10,35,19.50
2016,05,02,10,36,19.50
2016,05,02,10,37,19.60
2016,05,02,10,38,19.60
2016,05,02,10,39,19.70
2016,05,02,10,40,19.70
2016,05,02,10,41,19.80
2016,05,02,10,42,19.90
2016,05,02,10,43,19.90
2016,05,02,10,44,20.00
2016,05,02,10,45,20.00
2016,05,02,10,46,20.10
2016,05,02,10,47,20.10
2016,05,02,10,48,20.20
2016,05,02,10,49,20.20
2016,05,02,10,50,20.20
2016,05,02,10,51,20.20
2016,05,02,10,52,20.30
2016,05,02,10,53,20.30
2016,05,02,10,54,20.40
2016,05,02,10,55,20.40
2016,05,02,10,56,20.40
2016,05,02,10,57,20.40
2016,05,02,10,58,20.40
2016,05,02,10,59,20.50
2016,05,02,11,00,20.50
2016,05,02,11,01,20.50
2016,05,02,11,02,20.50
2016,05,02,11,03,20.60
2016,05,02,11,04,20.60
2016,05,02,11,05,20.70
2016,05,02,11,06,20.70
2016,05,02,11,07,20.80
2016,05,02,11,08,20.70
2016,05,02,11,09,20.70
2016,05,02,11,10,20.60
2016,05,02,11,11,20.50
2016,05,02,11,12,20.40
2016,05,02,11,13,20.30
2016,05,02,11,14,20.30
2016,05,02,11,15,20.30
2016,05,02,11,16,20.40
2016,05,02,11,17,20.40
2016,05,02,11,18,20.40
2016,05,02,11,19,20.40
2016,05,02,11,20,20.50
2016,05,02,11,21,20.50
2016,05,02,11,22,20.60
2016,05,02,11,23,20.60
2016,05,02,11,24,20.50
2016,05,02,11,25,20.50
2016,05,02,11,26,20.50
2016,05,02,11,27,20.50
2016,05,02,11,28,20.50
2016,05,02,11,29,20.60
2016,05,02,11,30,20.60
2016,05,02,11,31,20.60
2016,05,02,11,32,20.70
2016,05,02,11,33,20.70
2016,05,02,11,34,20.70
2016,05,02,11,35,20.80
2016,05,02,11,36,20.80
2016,05,02,11,37,20.90
2016,05,02,11,38,21.00
2016,05,02,11,39,21.00
2016,05,02,11,40,21.10
2016,05,02,11,41,21.10
2016,05,02,11,42,21.10
2016,05,02,11,43,21.20
2016,05,02,11,44,21.20
2016,05,02,11,45,21.30
2016,05,02,11,46,21.40
2016,05,02,11,47,21.40
2016,05,02,11,48,21.50
2016,05,02,11,49,21.60
2016,05,02,11,50,21.70
2016,05,02,11,51,21.70
2016,05,02,11,52,21.70
2016,05,02,11,53,21.70
2016,05,02,11,54,21.70
2016,05,02,11,55,21.70
2016,05,02,11,56,21.60
2016,05,02,11,57,21.60
2016,05,02,11,58,21.60
2016,05,02,11,59,21.60
2016,05,02,12,00,21.60
2016,05,02,12,01,21.70
2016,05,02,12,02,21.70
2016,05,02,12,03,21.70
2016,05,02,12,04,21.70
2016,05,02,12,05,21.70
2016,05,02,12,06,21.70
2016,05,02,12,07,21.70
2016,05,02,12,08,21.70
2016,05,02,12,09,21.70
2016,05,02,12,10,21.80
2016,05,02,12,11,21.80
2016,05,02,12,12,21.80
2016,05,02,12,13,21.80
2016,05,02,12,14,21.90
2016,05,02,12,15,22.00
2016,05,02,12,16,22.00
2016,05,02,12,17,22.10
2016,05,02,12,18,22.10
2016,05,02,12,19,22.00
2016,05,02,12,20,21.90
2016,05,02,12,21,21.90
2016,05,02,12,22,21.90
2016,05,02,12,23,21.90
2016,05,02,12,24,22.00
2016,05,02,12,25,22.00
2016,05,02,12,26,22.00
2016,05,02,12,27,22.00
2016,05,02,12,28,22.10
2016,05,02,12,29,22.00
2016,05,02,12,30,22.00
2016,05,02,12,31,22.00
2016,05,02,12,32,22.10
2016,05,02,12,33,22.10
2016,05,02,12,34,22.10
2016,05,02,12,35,22.20
2016,05,02,12,36,22.30
2016,05,02,12,37,22.40
2016,05,02,12,38,22.50
2016,05,02,12,39,22.60
2016,05,02,12,40,22.70
2016,05,02,12,41,22.70
2016,05,02,12,42,22.80
2016,05,02,12,43,22.80
2016,05,02,12,44,22.80
2016,05,02,12,45,22.90
2016,05,02,12,46,22.90
2016,05,02,12,47,22.90
2016,05,02,12,48,22.90
2016,05,02,12,49,22.90
2016,05,02,12,50,22.90
2016,05,02,12,51,23.00
2016,05,02,12,52,23.00
2016,05,02,12,53,23.10
2016,05,02,12,54,23.10
2016,05,02,12,55,23.00
2016,05,02,12,56,23.00
2016,05,02,12,57,23.00
2016,05,02,12,58,23.00
2016,05,02,12,59,23.00
2016,05,02,13,00,23.00
2016,05,02,13,01,23.00
2016,05,02,13,02,23.00
2016,05,02,13,03,23.10
2016,05,02,13,04,23.10
2016,05,02,13,05,23.10
2016,05,02,13,06,23.10
2016,05,02,13,07,23.10
2016,05,02,13,08,23.00
2016,05,02,13,09,22.90
2016,05,02,13,10,22.80
2016,05,02,13,11,22.70
2016,05,02,13,12,22.60
2016,05,02,13,13,22.60
2016,05,02,13,14,22.60
2016,05,02,13,15,22.60
2016,05,02,13,16,22.70
2016,05,02,13,17,22.70
2016,05,02,13,18,22.80
2016,05,02,13,19,22.80
2016,05,02,13,20,22.90
2016,05,02,13,21,22.90
2016,05,02,13,22,23.00
2016,05,02,13,23,23.00
2016,05,02,13,24,23.10
2016,05,02,13,25,23.10
2016,05,02,13,26,23.20
2016,05,02,13,27,23.30
2016,05,02,13,28,23.30
2016,05,02,13,29,23.40
2016,05,02,13,30,23.40
2016,05,02,13,31,23.50
2016,05,02,13,32,23.60
2016,05,02,13,33,23.70
2016,05,02,13,34,23.70
2016,05,02,13,35,23.80
2016,05,02,13,36,23.80
2016,05,02,13,37,23.80
2016,05,02,13,38,23.80
2016,05,02,13,39,23.80
2016,05,02,13,40,23.80
2016,05,02,13,41,23.80
2016,05,02,13,42,23.80
2016,05,02,13,43,23.80
2016,05,02,13,44,23.80
2016,05,02,13,45,23.80
2016,05,02,13,46,23.80
2016,05,02,13,47,23.90
2016,05,02,13,48,23.90
2016,05,02,13,49,24.00
2016,05,02,13,50,24.10
2016,05,02,13,51,24.20
2016,05,02,13,52,24.30
2016,05,02,13,53,24.40
2016,05,02,13,54,24.40
2016,05,02,13,55,24.50
2016,05,02,13,56,24.50
2016,05,02,13,57,24.50
2016,05,02,13,58,24.50
2016,05,02,13,59,24.50
2016,05,02,14,00,24.50
2016,05,02,14,01,24.50
2016,05,02,14,02,24.60
2016,05,02,14,03,24.50
2016,05,02,14,04,24.50
2016,05,02,14,05,24.40
2016,05,02,14,06,24.30
2016,05,02,14,07,24.30
2016,05,02,14,08,24.30
2016,05,02,14,09,24.30
2016,05,02,14,10,24.20
2016,05,02,14,11,24.20
2016,05,02,14,12,24.10
2016,05,02,14,13,24.10
2016,05,02,14,14,24.10
2016,05,02,14,15,24.20
2016,05,02,14,16,24.20
2016,05,02,14,17,24.20
2016,05,02,14,18,24.20
2016,05,02,14,19,24.20
2016,05,02,14,20,24.20
2016,05,02,14,21,24.20
2016,05,02,14,22,24.30
2016,05,02,14,23,24.30
2016,05,02,14,24,24.30
2016,05,02,14,25,24.30
2016,05,02,14,26,24.30
2016,05,02,14,27,24.30
2016,05,02,14,28,24.40
2016,05,02,14,29,24.40
2016,05,02,14,30,24.50
2016,05,02,14,31,24.50
2016,05,02,14,32,24.40
2016,05,02,14,33,24.40
2016,05,02,14,34,24.40
2016,05,02,14,35,24.40
2016,05,02,14,36,24.40
2016,05,02,14,37,24.40
2016,05,02,14,38,24.40
2016,05,02,14,39,24.30
2016,05,02,14,40,24.30
2016,05,02,14,41,24.20
2016,05,02,14,42,24.20
2016,05,02,14,43,24.10
2016,05,02,14,44,24.00
2016,05,02,14,45,23.90
2016,05,02,14,46,23.90
2016,05,02,14,47,23.90
2016,05,02,14,48,23.90
2016,05,02,14,49,24.00
2016,05,02,14,50,24.00
2016,05,02,14,51,24.00
2016,05,02,14,52,24.00
2016,05,02,14,53,24.10
2016,05,02,14,54,24.10
2016,05,02,14,55,24.10
2016,05,02,14,56,24.10
2016,05,02,14,57,24.20
2016,05,02,14,58,24.20
2016,05,02,14,59,24.30
2016,05,02,15,00,24.40
2016,05,02,15,01,24.50
2016,05,02,15,02,24.60
2016,05,02,15,03,24.70
2016,05,02,15,04,24.80
2016,05,02,15,05,24.80
2016,05,02,15,06,24.80
2016,05,02,15,07,24.80
2016,05,02,15,08,24.90
2016,05,02,15,09,24.90
2016,05,02,15,10,25.00
2016,05,02,15,11,25.10
2016,05,02,15,12,25.10
2016,05,02,15,13,25.20
2016,05,02,15,14,25.20
2016,05,02,15,15,25.20
2016,05,02,15,16,25.20
2016,05,02,15,17,25.30
2016,05,02,15,18,25.30
2016,05,02,15,19,25.40
2016,05,02,15,20,25.40
2016,05,02,15,21,25.30
2016,05,02,15,22,25.30
2016,05,02,15,23,25.30
2016,05,02,15,24,25.20
2016,05,02,15,25,25.20
2016,05,02,15,26,25.10
2016,05,02,15,27,25.00
2016,05,02,15,28,25.00
2016,05,02,15,29,24.90
2016,05,02,15,30,24.80
2016,05,02,15,31,24.70
2016,05,02,15,32,24.70
2016,05,02,15,33,24.60
2016,05,02,15,34,24.60
2016,05,02,15,35,24.60
2016,05,02,15,36,24.60
2016,05,02,15,37,24.50
2016,05,02,15,38,24.50
2016,05,02,15,39,24.50
2016,05,02,15,40,24.50
2016,05,02,15,41,24.50
2016,05,02,15,42,24.60
2016,05,02,15,43,24.60
2016,05,02,15,44,24.60
2016,05,02,15,45,24.70
2016,05,02,15,46,24.70
2016,05,02,15,47,24.70
2016,05,02,15,48,24.70
2016,05,02,15,49,24.70
2016,05,02,15,50,24.70
2016,05,02,15,51,24.70
2016,05,02,15,52,24.60
2016,05,02,15,53,24.60
2016,05,02,15,54,24.50
2016,05,02,15,55,24.50
2016,05,02,15,56,24.40
2016,05,02,15,57,24.40
2016,05,02,15,58,24.40
2016,05,02,15,59,24.40
2016,05,02,16,00,24.40
2016,05,02,16,01,24.50
2016,05,02,16,02,24.50
2016,05,02,16,03,24.50
2016,05,02,16,04,24.60
2016,05,02,16,05,24.60
2016,05,02,16,06,24.60
2016,05,02,16,07,24.70
2016,05,02,16,08,24.70
2016,05,02,16,09,24.70
2016,05,02,16,10,24.70
2016,05,02,16,11,24.70
2016,05,02,16,12,24.70
2016,05,02,16,13,24.80
2016,05,02,16,14,24.80
2016,05,02,16,15,24.80
2016,05,02,16,16,24.80
2016,05,02,16,17,24.80
2016,05,02,16,18,24.70
2016,05,02,16,19,24.70
2016,05,02,16,20,24.70
2016,05,02,16,21,24.60
2016,05,02,16,22,24.60
2016,05,02,16,23,24.60
2016,05,02,16,24,24.50
2016,05,02,16,25,24.50
2016,05,02,16,26,24.40
2016,05,02,16,27,24.40
2016,05,02,16,28,24.40
2016,05,02,16,29,24.40
2016,05,02,16,30,24.40
2016,05,02,16,31,24.30
2016,05,02,16,32,24.30
2016,05,02,16,33,24.30
2016,05,02,16,34,24.30
2016,05,02,16,35,24.20
2016,05,02,16,36,24.20
2016,05,02,16,37,24.20
2016,05,02,16,38,24.20
2016,05,02,16,39,24.20
2016,05,02,16,40,24.20
2016,05,02,16,41,24.20
2016,05,02,16,42,24.20
2016,05,02,16,43,24.20
2016,05,02,16,44,24.20
2016,05,02,16,45,24.20
2016,05,02,16,46,24.20
2016,05,02,16,47,24.20
2016,05,02,16,48,24.30
2016,05,02,16,49,24.30
2016,05,02,16,50,24.40
2016,05,02,16,51,24.50
2016,05,02,16,52,24.60
2016,05,02,16,53,24.70
2016,05,02,16,54,24.90
2016,05,02,16,55,25.00
2016,05,02,16,56,25.10
2016,05,02,16,57,25.20
2016,05,02,16,58,25.30
2016,05,02,16,59,25.30
2016,05,02,17,00,25.30
2016,05,02,17,01,25.30
2016,05,02,17,02,25.30
2016,05,02,17,03,25.40
2016,05,02,17,04,25.50
2016,05,02,17,05,25.60
2016,05,02,17,06,25.70
2016,05,02,17,07,25.80
2016,05,02,17,08,25.80
2016,05,02,17,09,25.90
2016,05,02,17,10,26.00
2016,05,02,17,11,26.10
2016,05,02,17,12,26.10
2016,05,02,17,13,26.20
2016,05,02,17,14,26.20
2016,05,02,17,15,26.20
2016,05,02,17,16,26.30
2016,05,02,17,17,26.30
2016,05,02,17,18,26.40
2016,05,02,17,19,26.40
2016,05,02,17,20,26.40
2016,05,02,17,21,26.50
2016,05,02,17,22,26.50
2016,05,02,17,23,26.50
2016,05,02,17,24,26.40
2016,05,02,17,25,26.30
2016,05,02,17,26,26.30
2016,05,02,17,27,26.30
2016,05,02,17,28,26.20
2016,05,02,17,29,26.20
2016,05,02,17,30,26.20
2016,05,02,17,31,26.10
2016,05,02,17,32,26.10
2016,05,02,17,33,26.10
2016,05,02,17,34,26.10
2016,05,02,17,35,26.00
2016,05,02,17,36,26.00
2016,05,02,17,37,25.90
2016,05,02,17,38,25.90
2016,05,02,17,39,25.80
2016,05,02,17,40,25.80
2016,05,02,17,41,25.80
2016,05,02,17,42,25.70
2016,05,02,17,43,25.60
2016,05,02,17,44,25.50
2016,05,02,17,45,25.40
2016,05,02,17,46,25.30
2016,05,02,17,47,25.20
2016,05,02,17,48,25.20
2016,05,02,17,49,25.20
2016,05,02,17,50,25.20
2016,05,02,17,51,25.20
2016,05,02,17,52,25.20
2016,05,02,17,53,25.30
2016,05,02,17,54,25.40
2016,05,02,17,55,25.40
2016,05,02,17,56,25.50
2016,05,02,17,57,25.60
2016,05,02,17,58,25.60
2016,05,02,17,59,25.50
2016,05,02,18,00,25.40
2016,05,02,18,01,25.40
2016,05,02,18,02,25.30
2016,05,02,18,03,25.20
2016,05,02,18,04,25.10
2016,05,02,18,05,25.00
2016,05,02,18,06,24.90
2016,05,02,18,07,24.90
2016,05,02,18,08,24.80
2016,05,02,18,09,24.80
2016,05,02,18,10,24.80
2016,05,02,18,11,24.80
2016,05,02,18,12,24.80
2016,05,02,18,13,24.80
2016,05,02,18,14,24.80
2016,05,02,18,15,24.90
2016,05,02,18,16,24.90
2016,05,02,18,17,25.00
2016,05,02,18,18,25.10
2016,05,02,18,19,25.20